This demonstration page uses our WeatherBlox Daily Observations layout. Learn more.

Left ArrowRight Arrow

Hourly Observations for August 15, 2015

Temp ( °F °C ) Dew Point ( °F °C ) Humidity (%) Winds ( mph kmh ) Pressure ( in mb ) Visibility ( mi km ) Precip ( " mm )
12:51 am 00:51 Clear 81 27.2 58 14.4 45 45 NW 10 17 29.84 1011 10 16 0.00 0.00
1:51 am 01:51 Clear 83 28.3 55 12.8 38 38 N 9 15 29.82 1010 10 16 0.00 0.00
2:51 am 02:51 Clear 80 26.7 55 12.8 42 42 N 5 7 29.82 1010 10 16 0.00 0.00
3:51 am 03:51 Clear 76 24.4 57 13.9 52 52 ESE 3 6 29.82 1010 10 16 0.00 0.00
4:51 am 04:51 Clear 73 22.8 57 13.9 57 57 Calm 29.83 1010 10 16 0.00 0.00
5:51 am 05:51 Sunny 73 22.8 57 13.9 57 57 N 5 7 29.87 1011 10 16 0.00 0.00
6:51 am 06:51 Sunny 77 25 57 13.9 50 50 Calm 29.88 1012 10 16 0.00 0.00
7:51 am 07:51 Sunny 84 28.9 54 12.2 36 36 Calm 29.88 1012 10 16 0.00 0.00
8:51 am 08:51 Sunny 90 32.2 54 12.2 29 29 Calm 29.87 1012 10 16 0.00 0.00
9:51 am 09:51 Sunny 94 34.4 53 11.7 25 25 VRB 3 6 29.77 1008 10 16 0.00 0.00
10:51 am 10:51 Sunny 97 36.1 52 11.1 22 22 VRB 5 7 29.77 1008 10 16 0.00 0.00
11:51 am 11:51 Sunny 101 38.3 49 9.4 17 17 S 5 7 29.83 1010 10 16 0.00 0.00
12:51 pm 12:51 Sunny 102 38.9 47 8.3 15 15 VRB 3 6 29.82 1010 10 16 0.02 0.51
1:51 pm 13:51 Sunny 74 23.3 69 20.6 85 85 W 5 7 30.08 1019 10 16 0.00 0.00
2:51 pm 14:51 Mostly Sunny 109 42.8 44 6.7 11 11 WNW 10 17 29.73 1007 10 16 0.00 0.00
3:51 pm 15:51 Mostly Sunny 84 28.9 60 15.6 44 44 NNW 9 15 29.86 1011 10 16 0.00 0.00
4:51 pm 16:51 Mostly Sunny 103 39.4 50 10 17 17 W 15 24 29.72 1006 10 16 0.00 0.00
5:51 pm 17:51 Sunny 103 39.4 48 8.9 16 16 ENE 16 26 29.72 1006 10 16 0.00 0.00
6:02 pm 18:02 Sunny 101 38.3 49 9.4 17 17 ENE 22 35 29.62 1003 10 16 0.00 0.00
6:51 pm 18:51 Cloudy 79 26.1 68 20 69 69 undefined N/A 29.83 1010 N/A 0.00 0.03
7:51 pm 19:51 Clear 94 34.4 51 10.6 23 23 SSE 5 7 29.75 1007 10 16 0.00 0.00
8:51 pm 20:51 Clear 90 32.2 51 10.6 26 26 SSE 6 9 29.77 1008 10 16 0.00 0.00
9:51 pm 21:51 Clear 89 31.7 52 11.1 28 28 E 7 11 29.78 1009 10 16 0.00 0.00
10:51 pm 22:51 Clear 86 30 53 11.7 32 32 Calm 29.79 1009 10 16 0.00 0.00
11:51 pm 23:51 Clear 88 31.1 51 10.6 28 28 ENE 9 15 29.78 1008 10 16 0.00 0.00

Powered by AerisWeather